Temp
29 29 29 31 32 33 33 31 30 27 26 22 19 19 23 24 29 29 28 28 27 27 26 25 25 24 23 22 21 21 21 20 20 20 21 22 22 23 22 22 22 21 21 21
29 28 31 32 33 33 33 33 31 28 29 26 20 21 23 23 27 30 29 28 28 27 27 26 25 24 23 22 21 21 20 20 20 21 21 22 22 23 23 22 22 20 20 21
29 30 31 31 32 32 33 33 29 28 30 28 24 22 23 28 30 31 31 29 28 28 27 26 25 24 24 23 21 20 20 20 20 21 21 22 23 23 22 22 21 20 20 20
30 31 31 31 31 32 32 34 34 32 29 30 34 30 27 31 32 33 32 30 29 28 27 26 25 24 24 23 22 21 20 20 21 21 21 22 22 22 22 22 21 21 20 20
29 30 31 31 31 33 32 34 34 34 32 33 32 32 30 32 31 32 33 32 30 29 28 27 26 25 24 23 22 21 20 20 21 21 21 22 22 23 23 22 22 21 20 20
30 31 31 32 33 33 34 33 33 32 32 31 33 33 30 33 32 33 33 32 31 30 29 28 26 25 24 24 22 21 21 20 20 21 21 21 22 23 23 22 22 21 22 21
29 30 32 32 32 33 33 32 29 28 29 30 33 33 32 32 33 35 34 33 32 31 30 29 27 26 25 24 23 22 21 20 20 21 21 20 22 22 22 22 22 22 22 22
27 27 30 32 32 31 32 32 30 27 28 31 33 32 34 33 34 35 34 33 33 32 31 29 28 26 25 25 24 23 21 21 20 20 21 20 22 22 21 22 22 23 23 23
27 28 31 31 32 33 31 31 33 31 32 31 33 34 35 34 35 35 34 32 30 31 32 31 29 27 26 25 24 23 22 22 21 20 21 21 21 22 21 21 22 23 23 23
28 27 30 32 32 33 32 32 31 31 28 28 31 30 29 30 34 35 35 35 34 34 33 33 30 28 26 25 25 24 23 22 22 21 20 20 21 22 21 21 22 22 23 22
28 28 29 31 31 31 31 32 31 32 32 29 29 31 32 29 29 34 35 34 33 33 32 32 32 29 27 26 25 24 24 22 22 21 20 20 20 21 21 21 21 22 22 22
28 28 27 29 32 32 32 31 31 29 28 31 32 32 32 31 32 35 34 33 32 31 31 31 31 30 28 27 26 25 24 23 22 22 21 20 20 20 22 21 21 21 22 21
26 26 25 27 30 32 31 31 31 31 31 29 30 32 29 30 31 33 33 31 30 30 30 30 30 30 28 28 27 26 25 24 23 23 21 20 20 20 21 22 22 21 22 22
22 25 25 26 28 31 30 30 31 31 30 30 31 32 32 31 32 32 31 30 30 29 29 29 29 29 29 28 27 26 25 25 24 22 22 21 20 20 21 22 23 22 22 22
24 24 26 28 29 30 30 30 30 30 31 30 31 32 33 30 29 29 30 29 28 28 27 27 27 28 28 28 27 27 26 25 24 23 22 22 21 20 21 21 22 23 23 23
25 24 25 26 28 28 27 30 30 30 31 31 31 32 27 28 30 29 29 28 27 26 24 23 24 25 26 27 27 26 26 25 25 24 23 22 22 21 21 21 21 22 23 23
24 24 24 24 27 28 26 28 30 30 31 31 30 24 24 24 26 25 25 24 23 23 22 21 21 22 24 24 26 26 25 25 25 24 24 22 22 22 21 21 21 21 22 23
23 22 23 24 25 23 27 30 30 27 23 24 23 22 23 22 23 21 21 21 21 20 19 19 19 19 21 23 24 24 25 25 25 24 24 23 22 22 22 21 21 21 22 22
23 23 22 23 24 26 27 27 26 26 18 19 20 20 20 21 22 18 18 19 18 17 16 16 17 18 19 22 23 23 24 25 24 24 24 23 23 22 21 21 21 21 21 21
22 22 21 22 22 22 20 19 21 22 16 17 17 16 17 20 23 18 16 17 17 16 15 15 18 18 18 19 20 22 23 24 25 24 23 23 23 22 21 21 21 21 21 21
20 21 20 21 22 19 20 20 19 20 15 15 15 15 15 16 15 15 15 15 15 15 14 14 15 15 16 18 19 21 23 24 24 24 23 23 22 22 22 21 21 20 20 20
19 19 20 21 21 19 17 19 17 14 15 16 15 14 15 15 15 14 14 14 14 14 13 13 15 15 16 16 18 20 22 23 24 24 23 23 22 22 21 21 21 20 20 20
17 19 18 19 16 17 15 14 14 14 15 14 15 14 13 15 15 14 13 13 13 12 12 13 13 14 16 17 17 18 20 22 22 23 23 22 22 21 21 21 21 21 21 20
19 18 19 18 15 17 16 15 15 15 15 15 15 14 14 14 14 13 12 12 13 12 12 12 12 13 14 16 17 17 19 21 21 21 22 21 21 21 21 21 21 20 20 20
17 18 17 18 15 16 15 15 15 16 16 16 15 15 14 14 14 12 11 11 11 11 11 11 12 12 13 14 15 15 17 20 21 21 20 21 21 21 21 21 21 21 20 20
12 13 14 12 15 15 14 14 15 15 15 15 16 15 14 14 13 12 11 11 11 11 10 11 11 12 12 13 14 14 16 18 19 20 20 20 20 21 21 20 20 20 21 21
Height
1472 1475 1476 1467 1460 1452 1453 1464 1476 1487 1489 1502 1521 1523 1513 1498 1485 1491 1496 1499 1503 1509 1514 1520 1525 1531 1534 1538 1542 1546 1550 1552 1554 1556 1559 1562 1562 1566 1567 1567 1569 1570 1571 1571
1470 1470 1463 1460 1454 1451 1452 1455 1468 1478 1475 1490 1508 1516 1490 1477 1482 1475 1485 1495 1498 1504 1510 1516 1522 1526 1531 1535 1540 1544 1548 1551 1554 1556 1559 1563 1565 1567 1567 1568 1570 1572 1573 1574
1464 1459 1459 1459 1456 1454 1449 1451 1465 1478 1469 1471 1487 1506 1499 1475 1470 1471 1477 1486 1495 1499 1504 1511 1517 1522 1528 1531 1535 1540 1545 1548 1552 1555 1558 1561 1563 1567 1566 1569 1571 1573 1574 1576
1455 1454 1453 1455 1456 1450 1456 1438 1444 1456 1471 1474 1449 1479 1475 1465 1463 1463 1467 1477 1488 1494 1500 1507 1512 1517 1522 1526 1532 1536 1541 1545 1550 1552 1557 1560 1563 1565 1568 1570 1571 1573 1574 1577
1450 1451 1451 1451 1450 1445 1449 1437 1444 1446 1455 1454 1458 1466 1464 1457 1467 1464 1461 1467 1478 1486 1494 1501 1507 1515 1520 1524 1528 1534 1537 1541 1547 1550 1555 1559 1561 1565 1568 1569 1571 1573 1575 1576
1444 1445 1444 1442 1440 1441 1440 1442 1445 1453 1456 1474 1455 1459 1473 1449 1453 1451 1455 1462 1469 1478 1488 1495 1503 1511 1517 1521 1524 1531 1535 1539 1544 1548 1552 1557 1560 1563 1568 1568 1570 1573 1574 1576
1445 1441 1437 1439 1442 1436 1442 1450 1475 1490 1481 1477 1444 1455 1449 1448 1445 1440 1446 1456 1462 1470 1479 1488 1496 1503 1511 1517 1520 1526 1531 1535 1541 1545 1549 1553 1557 1561 1564 1566 1569 1571 1573 1574
1453 1455 1435 1430 1434 1440 1439 1445 1465 1498 1489 1467 1441 1460 1442 1435 1441 1440 1449 1453 1458 1467 1471 1479 1487 1495 1504 1512 1516 1521 1525 1531 1537 1541 1545 1549 1554 1557 1561 1565 1568 1570 1573 1574
1445 1441 1426 1430 1429 1432 1438 1445 1439 1457 1449 1456 1444 1436 1426 1430 1439 1437 1442 1450 1458 1459 1462 1467 1476 1485 1494 1504 1512 1516 1520 1526 1532 1538 1541 1546 1550 1554 1558 1562 1566 1567 1571 1571
1432 1444 1426 1422 1428 1425 1429 1435 1453 1447 1480 1488 1456 1460 1461 1448 1435 1434 1437 1444 1450 1454 1458 1463 1467 1475 1485 1495 1506 1513 1516 1520 1526 1533 1537 1541 1546 1551 1554 1558 1562 1565 1568 1570
1428 1432 1428 1419 1422 1428 1430 1433 1436 1436 1442 1468 1472 1453 1434 1446 1446 1434 1438 1443 1451 1457 1460 1461 1461 1469 1479 1489 1499 1508 1514 1515 1521 1527 1532 1537 1541 1545 1551 1554 1557 1561 1564 1567
1421 1427 1434 1423 1410 1414 1419 1426 1431 1452 1465 1440 1445 1442 1423 1435 1440 1431 1435 1442 1453 1460 1462 1464 1463 1466 1475 1484 1493 1502 1509 1512 1516 1522 1527 1531 1536 1540 1544 1549 1552 1556 1560 1562
1431 1435 1446 1437 1417 1406 1418 1421 1427 1433 1440 1451 1455 1441 1432 1438 1439 1435 1439 1447 1454 1461 1464 1465 1467 1470 1474 1481 1490 1497 1503 1509 1512 1517 1522 1527 1531 1534 1538 1543 1547 1551 1554 1557
1443 1438 1437 1437 1418 1403 1417 1420 1422 1429 1442 1447 1442 1434 1426 1428 1438 1442 1447 1451 1457 1463 1466 1466 1469 1473 1476 1479 1485 1493 1498 1504 1509 1512 1517 1522 1526 1529 1533 1537 1541 1545 1548 1551
1439 1440 1428 1418 1409 1409 1408 1419 1425 1429 1428 1437 1432 1431 1423 1435 1440 1443 1450 1456 1460 1464 1467 1468 1472 1471 1478 1481 1484 1489 1495 1499 1504 1507 1511 1514 1520 1525 1528 1531 1535 1538 1542 1545
1432 1440 1431 1425 1415 1415 1420 1410 1417 1421 1421 1427 1427 1430 1437 1428 1428 1443 1454 1460 1464 1466 1470 1472 1471 1474 1477 1481 1484 1487 1490 1494 1499 1502 1504 1509 1514 1518 1522 1525 1529 1532 1535 1538
1435 1434 1437 1437 1419 1418 1433 1417 1414 1419 1419 1423 1434 1451 1448 1453 1454 1455 1463 1465 1471 1473 1473 1476 1477 1477 1476 1478 1483 1484 1487 1490 1493 1496 1499 1502 1506 1510 1514 1518 1522 1524 1527 1530
1439 1442 1438 1434 1426 1447 1419 1410 1412 1424 1443 1442 1446 1454 1458 1462 1464 1469 1472 1475 1475 1477 1477 1481 1482 1476 1474 1472 1475 1480 1481 1484 1487 1490 1493 1496 1499 1502 1506 1510 1513 1517 1520 1522
1441 1442 1442 1439 1434 1425 1417 1419 1426 1423 1466 1464 1462 1463 1465 1462 1464 1476 1478 1478 1477 1476 1475 1475 1474 1472 1470 1468 1470 1472 1475 1476 1479 1481 1485 1490 1493 1497 1501 1503 1506 1509 1513 1515
1446 1445 1451 1440 1446 1449 1447 1442 1438 1442 1471 1476 1473 1471 1469 1463 1459 1481 1481 1479 1479 1477 1475 1473 1471 1469 1468 1471 1471 1469 1470 1470 1471 1475 1479 1483 1487 1489 1491 1494 1497 1501 1505 1509
1454 1451 1454 1446 1443 1456 1455 1454 1454 1461 1489 1482 1479 1475 1474 1475 1483 1485 1483 1482 1479 1480 1480 1477 1475 1473 1471 1468 1465 1462 1463 1463 1465 1469 1471 1475 1478 1481 1484 1488 1492 1495 1497 1500
1452 1455 1453 1449 1447 1460 1465 1456 1468 1484 1489 1484 1482 1481 1478 1481 1482 1482 1483 1483 1484 1484 1482 1478 1473 1469 1467 1464 1461 1458 1459 1460 1460 1460 1464 1466 1469 1473 1477 1480 1483 1487 1490 1492
1457 1456 1459 1459 1468 1472 1475 1477 1480 1480 1480 1484 1484 1484 1484 1484 1485 1486 1486 1486 1486 1484 1481 1477 1472 1467 1464 1460 1458 1453 1451 1449 1449 1454 1455 1458 1462 1464 1468 1472 1474 1477 1479 1481
1457 1463 1461 1466 1475 1475 1479 1483 1485 1487 1488 1488 1487 1488 1487 1488 1489 1488 1486 1484 1484 1482 1479 1476 1471 1466 1461 1458 1455 1452 1449 1446 1446 1447 1450 1452 1455 1458 1461 1463 1466 1467 1469 1471
1472 1469 1472 1472 1482 1484 1482 1484 1487 1488 1489 1489 1489 1489 1491 1491 1490 1489 1486 1483 1481 1480 1477 1474 1471 1466 1461 1457 1453 1449 1445 1443 1442 1444 1447 1448 1450 1452 1453 1454 1456 1458 1459 1462
1492 1491 1488 1493 1490 1488 1489 1489 1488 1488 1489 1488 1488 1489 1490 1490 1490 1489 1486 1483 1480 1478 1476 1473 1469 1465 1460 1455 1451 1446 1442 1434 1439 1443 1444 1444 1445 1447 1448 1449 1450 1451 1453 1455
Wind_Speed
24 15 18 21 20 23 17 14 9 13 16 10 3 15 16 30 23 25 22 24 26 26 25 24 23 23 23 23 23 21 19 19 17 17 18 11 8 12 10 7 4 6 8 10
20 22 23 23 23 22 19 13 14 10 17 14 21 22 26 27 32 33 30 26 26 27 27 27 26 27 26 26 25 24 22 22 20 17 16 13 12 11 8 5 6 5 7 10
24 25 23 23 23 23 21 19 13 12 15 22 23 22 26 20 26 29 28 28 26 28 31 31 30 30 29 30 30 30 25 22 24 17 14 14 14 13 11 5 6 7 9 6
26 26 26 24 23 23 20 17 12 19 19 7 11 8 22 21 17 16 26 30 27 29 31 33 33 32 32 32 32 30 30 25 27 22 15 15 15 15 11 4 11 5 11 8
28 28 27 28 25 25 21 19 13 16 10 12 9 9 4 15 13 18 17 29 29 30 31 33 32 33 30 32 31 32 32 29 27 27 20 21 15 14 14 14 13 5 10 11
29 28 29 28 25 24 22 19 14 11 15 13 13 12 14 19 23 23 23 26 29 31 31 33 32 33 32 31 32 33 32 31 28 31 25 22 22 17 15 17 13 11 6 10
26 31 27 31 28 23 24 18 9 12 12 13 15 13 7 11 16 12 20 28 28 34 31 32 35 35 35 33 34 33 34 34 31 33 30 26 27 18 17 16 11 9 10 5
22 24 30 23 32 26 25 22 14 13 13 15 15 16 9 19 11 9 21 16 24 24 30 34 37 37 37 34 36 36 36 32 34 32 35 30 30 25 15 22 16 14 12 13
22 30 21 30 27 28 25 20 22 23 20 12 13 18 17 17 13 13 23 25 27 41 32 37 39 41 40 38 35 38 38 35 34 35 31 35 32 31 23 15 21 19 13 14
26 21 28 26 31 28 30 15 21 16 21 14 18 5 8 10 14 14 12 11 6 7 0 14 38 42 41 40 38 36 38 37 32 34 32 31 32 35 30 22 22 20 17 12
26 24 22 27 27 28 22 22 22 16 17 15 15 11 22 7 14 13 13 20 13 10 1 8 32 40 42 38 37 38 35 37 36 34 33 32 33 33 34 30 25 26 19 22
13 9 17 22 19 29 29 23 24 12 20 14 16 15 13 16 18 14 16 14 16 11 13 5 5 33 40 36 36 39 38 36 37 34 36 33 33 33 34 36 32 27 29 21
7 14 13 20 22 26 31 23 23 21 19 18 15 16 14 8 12 11 22 23 19 12 10 9 1 11 32 33 33 36 39 38 37 35 34 34 35 35 34 37 37 34 32 32
2 14 18 18 18 20 26 29 26 24 17 18 19 20 5 19 14 22 14 16 16 11 12 14 7 5 12 28 31 33 35 38 36 37 34 36 36 36 36 36 36 39 34 32
8 15 17 28 27 16 23 23 23 27 24 21 18 19 10 16 9 13 19 13 14 16 16 17 16 10 10 13 29 31 34 37 38 38 38 37 38 37 36 36 37 37 38 37
11 12 16 20 22 15 21 24 25 30 21 22 24 18 23 32 32 26 13 12 13 18 17 19 17 15 14 15 14 29 32 34 38 39 40 40 38 39 39 38 36 37 38 37
11 11 10 17 18 12 19 17 23 20 19 16 18 14 18 18 18 26 24 22 16 15 15 15 17 15 9 10 14 24 28 33 35 41 41 42 42 42 42 41 40 39 39 39
6 8 9 12 13 15 11 13 8 13 18 16 16 18 15 12 18 24 22 16 15 14 13 12 14 15 11 10 12 14 29 30 38 39 43 42 44 45 45 45 44 44 42 43
9 8 8 9 12 9 16 4 9 10 10 13 12 13 16 13 19 22 21 20 15 16 17 20 20 21 20 14 16 17 21 33 35 43 42 42 42 44 43 45 47 47 46 43
11 8 7 11 14 12 8 14 27 9 6 10 10 13 18 19 8 11 21 19 17 18 22 23 20 22 19 16 20 24 23 34 36 35 40 40 43 43 46 46 47 48 46 46
9 8 11 12 11 9 7 10 15 9 3 8 11 16 18 11 12 13 16 16 17 17 20 23 19 18 15 17 23 20 23 24 34 35 34 40 41 45 44 44 43 43 43 43
10 8 8 11 16 4 18 3 3 6 8 7 12 13 15 14 15 16 15 16 16 17 18 22 22 19 18 17 15 13 16 21 21 29 34 33 39 41 42 42 43 42 41 42
4 9 6 7 7 16 23 22 14 11 11 11 10 11 11 12 14 14 13 13 14 16 18 21 23 22 21 16 14 9 7 12 15 24 29 33 32 37 39 40 40 43 43 43
8 13 2 4 6 18 16 16 14 10 7 7 9 10 11 12 11 12 11 12 14 14 17 19 21 22 21 17 16 14 10 10 14 15 25 24 30 31 34 37 40 38 41 43
9 6 10 5 11 2 12 10 8 5 6 4 6 7 9 9 9 9 10 14 15 15 16 17 19 20 21 20 18 18 12 12 13 16 17 22 23 28 32 36 37 38 38 39
17 16 11 1 7 7 2 7 8 8 9 9 6 8 9 9 8 8 8 11 13 16 16 16 17 17 19 20 20 18 15 10 11 14 16 17 21 26 28 30 32 35 36 31
Wind_Direction
225 234 235 240 233 260 281 165 182 174 192 128 231 272 282 273 193 171 175 178 181 181 182 179 180 178 174 179 180 168 171 173 170 154 153 148 145 154 162 149 133 133 92 89
229 226 238 243 251 246 252 253 155 178 236 141 168 219 209 227 237 172 172 180 185 180 181 180 182 179 179 182 183 179 177 185 167 171 166 178 170 161 173 207 159 133 122 97
228 230 225 244 248 254 255 253 141 178 230 219 173 191 221 220 232 166 174 175 187 185 181 180 185 183 184 187 188 186 183 196 170 180 175 194 177 165 169 197 168 143 127 93
238 231 239 220 244 247 250 252 247 192 184 216 214 218 190 197 187 194 175 171 184 187 186 184 185 188 188 189 194 192 187 202 176 176 193 184 163 170 171 178 169 190 132 137
231 236 230 241 223 244 251 257 226 253 263 276 180 257 187 189 178 196 206 175 182 186 188 186 190 192 193 189 195 194 196 200 187 175 185 194 174 180 175 181 186 193 167 139
241 231 238 238 241 229 251 252 253 283 282 247 248 256 168 185 194 185 183 189 180 180 186 188 191 191 195 192 193 194 204 198 196 181 181 192 184 181 179 192 198 196 183 163
233 237 238 237 240 230 230 242 223 236 245 243 231 234 170 100 291 206 170 186 181 176 183 186 186 190 192 195 190 194 205 203 202 192 188 186 194 200 182 194 189 171 195 208
227 226 228 231 233 235 223 221 232 222 241 238 224 245 211 164 159 135 161 179 178 191 186 187 190 189 191 197 193 192 204 210 205 202 197 197 194 195 182 200 188 191 194 201
224 234 224 231 236 231 238 218 230 244 231 255 252 213 240 126 175 182 160 162 167 216 196 188 190 189 190 193 199 195 203 212 215 203 206 208 202 197 190 205 193 189 191 219
243 246 231 221 230 239 232 234 223 234 250 245 257 224 276 315 193 197 172 174 129 139 249 201 188 186 188 190 197 199 204 213 216 213 209 213 214 207 202 198 206 192 203 195
223 244 244 225 211 225 222 225 236 245 237 235 248 249 199 100 323 208 200 133 101 59 128 276 183 183 183 188 194 200 202 208 214 215 210 216 222 218 207 205 208 209 199 214
222 251 239 250 234 214 231 223 228 228 254 235 256 267 145 168 200 157 141 119 103 78 18 51 301 175 179 187 194 199 202 207 213 217 210 216 220 226 216 212 210 219 210 216
289 235 249 251 257 212 215 216 227 229 231 250 249 248 133 149 302 38 136 118 98 69 40 39 57 174 179 186 195 199 202 205 214 217 214 211 219 224 225 217 218 221 224 216
330 259 234 242 251 197 201 215 219 228 230 224 247 248 183 148 199 170 137 91 100 81 44 36 95 197 191 190 195 204 205 204 210 216 220 212 217 224 228 225 222 224 230 228
236 251 254 242 258 281 202 211 231 233 240 236 233 236 231 155 128 49 90 83 69 65 42 34 11 56 223 210 201 205 206 206 207 212 217 223 218 223 229 227 227 228 229 235
237 241 259 267 254 253 286 212 208 227 225 234 243 246 37 26 117 152 119 102 71 58 38 16 6 1 33 226 221 208 211 212 211 214 218 220 224 220 226 227 228 229 233 235
249 251 271 250 245 207 227 257 200 226 234 248 233 55 47 41 33 51 57 64 47 30 27 4 341 331 343 333 264 230 222 217 218 217 219 219 222 225 226 228 226 230 233 238
250 288 275 253 243 229 203 232 263 95 48 27 50 49 42 34 60 59 48 44 36 15 8 351 331 321 305 293 288 292 230 227 222 223 221 222 220 225 231 228 227 229 235 237
272 250 252 259 244 244 210 106 35 228 66 27 42 39 28 357 108 50 27 22 26 8 356 334 328 324 318 291 275 285 262 225 228 225 225 221 225 223 223 228 229 232 230 234
235 250 284 261 260 218 29 348 0 36 95 32 45 37 16 23 80 22 4 4 9 4 347 338 330 323 319 312 302 293 278 236 230 228 226 227 225 230 226 227 231 235 233 235
226 232 232 242 255 104 18 22 317 272 99 32 46 48 35 32 26 9 2 1 360 350 347 336 330 322 312 303 286 280 276 259 240 233 231 228 231 229 234 230 230 232 232 233
195 194 230 246 263 214 346 6 102 97 107 66 57 39 35 19 9 12 8 3 353 345 342 342 341 332 317 285 296 297 268 264 256 242 232 235 231 232 231 234 232 232 233 234
63 29 27 24 75 96 73 96 84 69 49 45 51 48 33 12 4 359 358 0 352 342 339 342 348 341 332 316 312 296 263 222 221 240 238 234 235 232 231 231 237 234 233 234
62 33 34 14 337 94 94 104 98 77 66 47 45 38 17 5 358 353 359 350 336 337 337 348 358 1 347 329 318 312 295 250 234 237 238 235 232 235 232 234 233 237 232 233
352 327 16 54 38 322 44 67 35 33 15 15 16 4 355 351 359 350 357 8 10 356 342 342 346 2 6 352 326 317 313 259 256 247 246 241 238 239 238 238 236 234 238 232
8 2 10 120 316 342 81 348 324 334 333 322 329 337 336 343 352 349 347 2 5 5 351 345 347 351 2 9 0 340 313 300 274 255 241 242 244 241 242 242 245 243 232 243